Temperature
27 27 27 26 26 25 25 25 26 27 26 26 26 26 26 25 24 23 23 23 23 22 21 19 18 18 17 16 16 15 15 14 14 13 13 13 13 13 13 13 13 13 13 13
27 27 27 27 25 25 26 26 27 27 27 26 25 26 27 26 24 24 24 23 23 22 21 20 19 18 17 16 16 15 15 14 13 13 13 13 13 13 13 13 13 13 13 13
27 28 28 27 26 26 26 27 27 26 27 26 25 25 26 26 25 24 23 23 22 21 21 20 18 18 17 16 15 15 14 14 13 13 13 13 13 13 13 13 13 13 13 13
26 27 27 27 27 27 26 27 26 26 25 25 26 24 26 25 24 24 23 23 22 21 20 19 18 17 17 16 15 15 14 14 13 13 12 12 12 12 12 12 12 12 13 13
26 27 27 27 27 27 27 26 26 26 25 25 26 25 26 25 24 24 24 23 22 21 20 19 18 17 17 16 15 14 14 13 13 12 12 12 12 12 12 12 12 12 12 12
26 28 28 28 27 27 27 26 26 26 25 24 26 26 25 25 25 24 24 23 22 21 20 19 18 17 16 16 15 14 14 13 13 13 13 13 13 12 12 12 12 12 12 12
26 27 27 27 26 26 26 25 24 24 24 25 27 25 25 24 25 24 24 23 22 21 20 19 18 17 17 16 15 15 14 14 13 13 13 13 13 12 12 12 12 12 12 12
26 25 26 27 27 26 26 26 24 24 25 26 26 25 24 25 24 23 23 22 21 20 20 19 18 17 17 16 16 15 14 14 14 13 13 13 13 12 12 12 12 12 12 12
26 26 27 27 27 26 26 26 27 25 25 25 26 26 24 24 24 23 23 22 21 21 20 19 18 18 17 17 16 15 15 14 14 13 13 13 12 12 12 12 12 12 11 11
27 25 25 25 26 25 26 26 26 25 24 25 26 26 24 23 24 24 23 23 22 21 20 19 19 18 17 17 16 16 15 15 14 14 13 13 13 12 12 12 12 11 11 11
27 26 25 25 24 25 25 25 25 25 25 24 24 24 25 24 24 24 24 23 22 21 20 20 19 18 17 17 17 16 16 15 14 14 13 13 13 12 12 12 12 11 11 11
27 27 26 25 26 26 26 26 25 24 25 25 24 24 25 25 24 24 24 23 22 21 20 20 19 18 18 17 17 16 16 15 15 14 13 13 13 13 12 12 12 11 11 11
27 26 25 25 24 24 24 25 25 25 24 24 24 24 25 25 25 24 23 23 22 21 20 20 19 18 18 17 17 16 16 15 15 14 13 13 13 13 12 12 12 11 11 11
25 25 25 25 25 25 24 25 25 24 23 24 25 25 25 25 25 24 23 23 22 21 21 20 19 18 18 17 17 17 16 16 15 14 14 13 13 13 12 12 12 11 11 11
26 25 26 27 27 26 26 25 25 24 24 24 25 25 25 25 24 24 23 23 22 21 21 20 19 19 18 18 17 17 17 16 15 15 14 14 13 13 12 12 12 11 11 11
25 25 26 26 27 26 25 26 25 25 25 25 25 25 26 25 24 24 23 23 22 22 21 21 20 19 19 18 18 17 17 16 16 15 15 14 13 13 12 12 12 12 11 11
25 25 25 25 26 26 25 26 26 25 25 25 24 25 25 25 24 24 23 23 22 22 21 21 20 20 19 19 18 18 17 16 16 15 15 14 14 13 13 12 12 12 11 11
26 25 25 25 26 24 26 28 27 26 26 26 26 26 25 25 24 23 23 22 22 22 21 20 20 20 19 19 18 18 17 17 16 16 15 15 14 14 13 13 12 12 12 11
26 25 25 25 25 25 26 26 27 26 25 27 26 26 25 25 24 23 23 22 22 21 21 20 20 20 19 19 19 18 18 17 17 16 16 15 14 14 14 13 13 12 12 12
25 25 24 24 24 24 27 27 27 26 25 27 26 26 25 25 23 22 22 21 21 20 20 20 19 19 19 19 19 18 18 17 17 17 16 15 15 15 14 14 14 13 13 12
23 23 23 23 24 26 26 26 26 24 25 26 26 26 25 25 23 22 21 21 20 20 19 19 19 19 19 18 18 18 18 17 17 17 16 16 15 15 15 14 14 14 13 13
24 24 23 23 23 24 25 25 25 26 26 26 25 25 24 23 22 22 21 20 20 19 19 18 18 18 18 18 18 17 17 17 17 16 16 16 16 15 15 14 14 14 14 13
26 26 25 25 25 25 25 25 25 25 26 25 25 24 23 23 22 21 21 20 19 19 19 18 18 18 18 17 17 17 17 17 16 16 16 16 15 15 15 15 15 14 14 14
27 28 27 26 25 24 25 24 23 24 24 24 23 23 22 22 22 21 20 19 19 18 18 18 18 17 17 17 17 17 17 16 16 16 16 16 15 15 15 15 15 15 14 14
26 27 26 25 26 25 24 24 23 22 22 22 22 22 22 21 21 20 19 18 18 18 17 17 17 17 16 16 16 16 16 16 16 15 15 15 15 16 16 15 15 15 15 14
27 26 25 25 26 25 24 23 23 22 21 21 21 20 20 20 20 19 18 17 17 17 16 16 16 16 15 15 16 16 16 15 15 15 15 15 15 15 15 15 15 15 15 15
Wind_Speed
14 13 12 9 5 3 4 8 9 1 6 2 7 9 6 11 9 7 7 6 4 2 4 7 4 3 3 4 5 5 5 5 5 4 4 5 5 5 4 3 5 7 7 7
13 16 10 5 4 4 10 10 8 1 5 1 8 10 5 9 8 6 5 4 2 2 3 5 4 4 4 4 5 5 6 5 5 3 4 4 5 4 3 3 3 6 6 6
15 8 8 7 7 8 11 7 5 6 3 6 8 9 8 9 7 6 4 3 4 1 2 4 5 4 3 4 5 6 6 6 6 6 4 5 5 4 4 5 4 4 5 5
5 2 4 7 8 6 6 5 4 6 7 7 6 4 6 10 8 8 7 5 3 2 2 3 2 3 4 5 5 6 6 6 6 6 5 6 5 4 5 4 4 5 5 4
6 8 8 7 1 1 4 4 5 7 8 10 8 7 4 9 6 6 6 4 3 3 3 2 2 3 3 4 4 3 4 4 4 5 5 4 4 4 4 5 5 5 5 4
5 5 2 4 7 4 1 4 7 7 7 9 7 5 4 5 5 5 5 5 5 5 4 3 3 3 2 2 2 1 1 2 2 4 5 4 4 5 6 6 5 5 4 4
7 6 4 4 4 3 5 7 5 7 7 4 7 2 3 10 8 5 4 4 5 5 3 3 3 2 2 1 0 1 1 2 2 4 5 5 4 5 5 5 6 6 4 4
10 11 9 5 4 3 6 8 7 6 3 3 6 4 7 10 7 5 4 4 3 4 4 3 3 2 2 2 1 1 1 1 1 3 4 4 5 4 4 5 5 5 4 4
5 5 8 5 1 4 5 6 3 6 9 5 6 7 8 7 7 5 4 5 5 4 5 4 4 2 2 2 1 0 1 2 1 2 3 3 4 4 5 5 5 4 5 5
4 5 7 5 4 4 6 8 3 4 5 5 4 6 6 8 5 4 5 6 5 5 5 5 5 3 2 1 1 2 2 2 1 2 3 3 3 3 4 4 5 5 6 6
7 5 10 8 7 9 7 5 4 5 5 4 3 4 6 7 4 1 1 3 5 6 5 4 4 3 2 2 2 3 2 2 1 1 3 4 3 3 4 4 4 5 5 6
4 6 6 10 6 1 4 6 6 5 4 2 3 3 6 7 4 1 1 1 4 4 4 5 5 4 3 2 1 1 0 1 1 1 3 4 4 3 3 5 5 6 6 6
3 5 5 7 5 6 6 8 7 5 4 5 4 4 5 6 5 3 2 1 2 5 5 5 5 4 3 2 2 3 2 2 1 1 2 4 5 3 3 4 5 6 6 7
5 8 11 6 4 5 6 8 8 7 6 6 3 3 5 4 3 3 3 2 2 4 6 5 5 4 4 4 3 2 1 2 2 2 2 3 4 3 3 4 5 5 6 6
5 10 13 9 2 2 5 7 10 11 11 8 5 5 4 5 4 3 1 3 3 3 4 5 6 5 4 5 5 4 3 2 2 2 2 1 3 3 3 4 5 5 5 7
7 9 12 9 6 6 9 10 11 12 10 10 8 6 2 5 2 1 2 3 3 4 4 4 5 5 4 4 4 4 4 3 2 2 2 1 1 2 2 4 4 4 5 6
9 10 11 10 9 8 10 15 15 12 10 8 7 3 4 1 1 2 2 0 1 2 3 3 4 4 4 3 3 3 3 2 2 2 1 1 1 1 2 4 4 5 5 5
10 11 8 9 7 8 3 3 8 11 10 8 5 1 1 1 3 2 1 0 1 1 2 2 3 4 5 5 4 4 4 4 3 2 2 3 3 3 3 4 4 5 5 5
8 7 6 8 10 9 5 5 6 7 8 9 7 5 3 2 3 4 5 2 2 2 2 2 1 2 3 3 3 3 4 4 4 3 3 3 3 3 3 4 5 5 4 5
7 8 7 7 7 7 1 12 8 5 6 8 7 5 4 4 2 5 6 4 4 4 2 2 1 1 1 1 2 1 3 3 3 4 4 3 2 3 4 5 5 5 5 5
9 7 9 9 8 5 9 12 9 5 3 10 8 6 5 1 6 6 6 5 4 4 3 1 1 1 1 1 0 3 4 3 1 1 1 2 3 4 5 6 5 5 6 6
11 7 9 8 9 6 11 9 7 3 7 8 8 6 5 6 7 6 6 5 4 4 4 1 1 1 1 1 2 4 4 2 2 2 3 5 6 6 6 6 6 6 6 7
9 8 5 6 2 6 7 4 4 3 4 6 7 6 6 5 5 5 5 5 4 3 3 2 0 1 1 1 1 3 4 3 3 4 6 7 7 7 7 7 7 6 6 6
8 10 8 5 6 10 7 6 5 2 1 6 6 6 5 5 6 6 5 5 4 4 3 3 2 2 2 3 2 2 4 4 5 6 7 7 7 7 7 6 6 6 5 5
7 5 7 9 6 6 8 8 8 7 5 5 5 5 5 5 6 6 6 5 5 4 4 4 4 4 4 4 5 5 5 6 6 7 7 6 6 6 6 6 6 7 6 7
12 8 8 7 7 8 10 13 11 10 8 8 8 7 5 5 6 7 7 6 5 5 5 5 5 5 6 7 8 8 8 7 8 7 7 6 5 5 5 5 6 10 11 13
Wind_Direction
199 214 222 223 229 285 275 263 275 117 130 239 280 278 205 173 183 217 233 232 234 155 100 103 86 63 23 30 20 11 15 15 19 15 343 342 338 330 332 344 356 349 338 335
197 219 210 151 111 264 260 269 287 73 114 303 288 282 245 169 182 206 253 284 298 83 65 98 91 65 41 38 22 4 22 18 19 6 344 331 330 321 330 339 346 349 340 337
211 211 183 175 194 238 264 277 332 343 324 264 265 267 222 162 167 181 205 259 299 23 40 45 49 36 36 49 31 10 22 19 19 0 359 344 332 331 351 348 344 336 328 330
195 167 192 211 224 239 281 55 6 314 292 277 226 290 174 155 168 185 190 202 212 133 106 84 68 42 26 49 40 18 19 16 16 2 5 345 338 344 337 335 329 335 332 336
173 192 217 225 163 3 40 28 302 281 274 280 248 248 157 148 172 171 157 163 146 125 119 107 95 72 37 50 45 20 16 16 13 345 328 317 342 334 325 326 332 338 328 327
151 187 227 84 80 48 45 265 254 248 257 258 234 240 138 139 117 111 128 143 141 137 138 143 127 122 99 77 64 11 10 5 345 320 316 325 340 331 325 332 338 332 322 330
172 169 121 122 151 173 235 255 254 225 218 219 121 181 85 94 83 77 91 113 126 135 156 154 144 132 100 70 79 319 337 346 354 330 325 340 350 340 335 348 337 327 330 340
194 180 170 191 238 259 230 261 282 299 287 122 152 177 103 101 100 103 117 122 136 162 163 150 146 156 183 216 198 229 319 313 328 318 339 345 353 357 344 343 328 330 337 330
257 143 136 148 218 286 268 240 296 319 296 285 175 130 122 132 145 152 165 167 184 185 165 176 171 188 206 207 154 171 285 302 324 328 331 334 1 345 338 336 333 341 332 324
292 138 161 156 202 226 288 327 306 256 298 286 168 153 145 148 148 157 181 183 187 180 183 176 161 185 213 188 168 215 225 244 339 338 322 350 346 337 327 317 330 327 317 319
279 210 167 174 208 211 194 221 250 279 281 297 346 72 84 102 88 81 198 159 168 174 175 168 163 181 182 223 234 219 212 187 138 347 336 338 334 318 310 320 326 316 318 325
259 296 207 183 171 154 246 249 244 258 293 265 276 107 107 111 117 160 315 142 152 154 162 169 171 179 193 220 275 305 330 61 104 70 338 322 304 305 342 346 340 338 329 325
315 268 252 157 166 180 220 233 254 281 295 275 268 123 156 144 151 155 160 223 161 156 174 185 170 179 199 206 227 243 208 152 119 143 288 302 312 348 351 335 341 334 327 331
336 270 272 289 23 145 200 208 216 234 245 263 256 126 163 131 119 110 121 174 187 176 178 184 172 190 195 204 228 234 150 136 184 210 234 281 308 341 353 348 337 326 333 334
243 261 271 270 244 243 232 211 204 225 247 273 328 9 5 52 66 68 134 180 191 202 194 190 182 199 197 201 207 202 168 176 224 236 231 279 343 358 356 336 324 332 336 328
238 265 272 265 240 242 250 239 220 220 239 261 288 298 57 82 91 172 212 175 188 205 210 202 193 190 199 217 200 178 167 174 198 231 222 163 259 302 315 306 311 320 312 306
222 244 267 266 227 225 248 231 221 219 219 230 249 257 90 75 39 35 19 28 211 205 192 194 207 188 192 220 178 147 142 149 210 225 199 171 226 270 288 305 312 308 305 309
229 236 251 264 230 231 254 61 188 205 217 217 226 233 114 97 109 139 159 299 296 142 153 179 204 192 194 202 176 157 165 197 214 202 209 209 210 234 255 270 279 283 291 306
257 255 254 260 263 254 196 164 174 193 216 207 207 198 175 164 187 175 137 113 53 63 101 150 195 214 205 188 161 179 208 205 196 190 217 229 216 220 240 264 273 272 277 283
246 271 256 258 261 271 210 142 147 187 229 183 179 168 158 214 221 113 100 94 80 74 74 76 131 269 266 166 146 215 267 260 230 203 212 226 226 229 242 254 267 274 273 271
200 229 239 255 264 266 111 125 143 200 220 151 153 150 167 138 84 104 99 92 89 96 93 75 272 273 330 346 292 252 265 275 290 126 198 243 249 246 244 244 251 265 273 276
188 207 215 220 237 236 139 153 178 118 107 128 135 135 119 93 99 105 104 102 100 112 119 133 273 261 245 273 277 278 279 289 304 266 241 243 247 252 257 242 243 250 262 273
206 219 217 211 186 104 149 151 100 82 140 129 126 117 119 126 124 114 109 105 99 93 104 118 229 315 316 294 277 300 311 310 286 264 252 245 245 244 240 239 242 244 247 254
230 221 243 248 162 171 187 145 143 171 131 105 113 127 144 149 130 119 111 103 94 81 77 73 64 45 7 0 39 16 333 323 303 282 266 254 250 249 244 237 231 233 240 250
269 226 222 244 239 169 184 187 179 174 170 154 149 149 149 135 124 120 112 96 85 75 70 70 56 38 22 19 27 19 356 334 315 302 293 283 273 267 262 252 235 233 231 228
267 253 225 227 230 216 199 191 182 176 183 176 160 147 136 130 125 115 100 87 78 72 69 69 59 44 32 29 29 20 4 351 337 324 320 318 312 301 289 278 273 251 242 244
Height
1496 1498 1500 1500 1501 1506 1510 1511 1509 1506 1507 1510 1512 1510 1509 1514 1518 1522 1523 1524 1526 1527 1529 1529 1530 1531 1531 1530 1528 1527 1525 1523 1521 1518 1516 1515 1513 1512 1511 1509 1508 1506 1505 1504
1495 1496 1494 1495 1501 1506 1506 1508 1505 1503 1505 1509 1511 1508 1504 1509 1514 1518 1521 1522 1523 1525 1528 1529 1529 1530 1529 1528 1527 1526 1524 1522 1520 1518 1516 1514 1513 1511 1510 1508 1506 1505 1503 1502
1492 1491 1490 1495 1501 1504 1503 1504 1505 1508 1505 1505 1510 1511 1504 1505 1511 1516 1519 1522 1523 1524 1526 1528 1528 1529 1528 1527 1526 1525 1523 1522 1520 1517 1516 1513 1512 1511 1509 1507 1505 1504 1502 1500
1492 1491 1491 1495 1497 1500 1505 1502 1505 1508 1513 1512 1507 1520 1505 1503 1509 1512 1516 1519 1521 1523 1525 1526 1527 1527 1527 1526 1525 1524 1523 1521 1519 1517 1515 1513 1511 1510 1508 1507 1505 1503 1501 1499
1494 1492 1492 1495 1496 1498 1502 1503 1505 1507 1511 1513 1506 1514 1507 1503 1508 1510 1513 1516 1519 1521 1523 1525 1526 1526 1526 1525 1524 1523 1522 1520 1518 1516 1515 1513 1511 1509 1508 1506 1504 1502 1500 1498
1491 1489 1491 1493 1497 1500 1502 1505 1505 1506 1510 1520 1503 1510 1510 1505 1506 1508 1511 1515 1517 1520 1522 1523 1524 1524 1525 1524 1523 1522 1521 1519 1517 1516 1514 1513 1511 1509 1507 1505 1503 1501 1499 1498
1496 1493 1494 1496 1500 1503 1504 1511 1520 1521 1524 1513 1497 1508 1509 1503 1504 1507 1511 1514 1516 1518 1520 1522 1523 1523 1523 1523 1522 1521 1520 1518 1517 1515 1514 1512 1510 1508 1506 1504 1502 1500 1498 1497
1498 1502 1496 1496 1499 1502 1502 1506 1520 1526 1516 1507 1502 1507 1506 1501 1505 1509 1511 1514 1516 1517 1519 1520 1521 1521 1521 1521 1520 1520 1519 1517 1516 1515 1513 1511 1510 1508 1505 1503 1501 1500 1498 1496
1493 1498 1493 1496 1498 1500 1502 1503 1500 1512 1508 1510 1501 1500 1505 1502 1505 1508 1510 1512 1514 1515 1517 1518 1519 1520 1520 1520 1519 1518 1517 1516 1515 1514 1512 1511 1508 1506 1504 1502 1501 1499 1496 1494
1488 1502 1499 1500 1501 1502 1502 1502 1504 1512 1518 1517 1503 1501 1505 1504 1503 1505 1506 1509 1511 1513 1515 1516 1517 1518 1518 1518 1518 1517 1516 1515 1514 1513 1512 1510 1508 1506 1504 1502 1500 1497 1495 1493
1485 1494 1500 1501 1503 1500 1505 1506 1507 1508 1508 1520 1520 1515 1495 1499 1501 1503 1504 1506 1508 1510 1512 1514 1515 1516 1517 1517 1516 1516 1515 1514 1513 1512 1510 1509 1507 1505 1503 1501 1499 1497 1495 1492
1484 1489 1495 1496 1491 1494 1496 1499 1502 1514 1510 1506 1517 1515 1495 1498 1500 1502 1503 1505 1506 1508 1510 1512 1513 1514 1515 1515 1515 1515 1514 1513 1512 1510 1509 1508 1506 1504 1502 1500 1498 1495 1493 1491
1486 1493 1499 1503 1504 1499 1500 1499 1499 1503 1508 1509 1513 1512 1495 1496 1498 1500 1502 1504 1505 1506 1508 1510 1511 1512 1513 1513 1513 1513 1512 1511 1510 1509 1508 1506 1505 1503 1501 1499 1496 1494 1492 1490
1491 1493 1497 1502 1497 1495 1499 1498 1499 1504 1511 1507 1500 1500 1495 1494 1495 1498 1500 1502 1503 1505 1506 1508 1509 1510 1511 1511 1511 1511 1511 1510 1509 1508 1506 1505 1504 1502 1500 1497 1495 1493 1491 1488
1491 1494 1487 1483 1483 1487 1490 1493 1497 1501 1501 1503 1497 1496 1493 1492 1495 1497 1499 1500 1502 1503 1504 1505 1507 1508 1509 1509 1509 1509 1509 1508 1507 1507 1505 1504 1502 1500 1498 1496 1494 1492 1489 1487
1490 1491 1487 1485 1482 1486 1490 1488 1490 1494 1495 1496 1495 1495 1489 1492 1494 1496 1497 1498 1499 1501 1502 1503 1504 1505 1506 1507 1507 1507 1507 1507 1506 1505 1504 1502 1501 1499 1497 1495 1493 1490 1488 1486
1487 1490 1492 1490 1481 1486 1493 1482 1483 1486 1487 1491 1495 1492 1488 1491 1493 1494 1496 1497 1498 1499 1500 1501 1502 1503 1504 1505 1505 1506 1506 1505 1505 1504 1503 1501 1499 1498 1495 1493 1491 1489 1487 1485
1482 1485 1487 1489 1487 1502 1479 1465 1469 1478 1481 1482 1484 1485 1488 1490 1492 1493 1495 1496 1496 1497 1498 1499 1500 1501 1502 1503 1504 1504 1504 1503 1503 1502 1501 1500 1498 1496 1494 1492 1490 1488 1486 1483
1478 1481 1486 1488 1490 1483 1473 1468 1470 1476 1480 1477 1480 1483 1486 1488 1490 1491 1493 1494 1495 1496 1496 1497 1499 1500 1501 1501 1502 1502 1502 1502 1501 1500 1499 1498 1496 1495 1493 1491 1488 1486 1484 1482
1480 1480 1485 1486 1493 1492 1468 1463 1468 1475 1482 1473 1477 1480 1484 1486 1489 1492 1492 1493 1494 1494 1495 1496 1497 1498 1499 1500 1500 1501 1501 1501 1500 1499 1497 1496 1495 1493 1491 1489 1487 1485 1483 1481
1485 1486 1488 1490 1489 1475 1465 1465 1470 1486 1479 1470 1475 1479 1483 1484 1488 1491 1491 1492 1493 1494 1494 1495 1496 1497 1498 1498 1498 1499 1499 1499 1498 1496 1495 1494 1492 1490 1489 1487 1485 1483 1481 1479
1477 1481 1482 1484 1489 1480 1465 1466 1471 1472 1469 1470 1475 1478 1481 1484 1487 1489 1490 1491 1492 1493 1493 1494 1494 1495 1496 1496 1496 1496 1496 1496 1495 1493 1492 1491 1489 1487 1486 1484 1482 1480 1478 1476
1461 1464 1464 1467 1470 1463 1463 1465 1467 1469 1470 1472 1475 1478 1481 1484 1486 1488 1489 1490 1491 1491 1492 1492 1493 1494 1494 1494 1494 1494 1493 1492 1491 1490 1488 1487 1486 1484 1482 1481 1479 1477 1475 1473
1452 1453 1456 1458 1459 1461 1463 1464 1466 1468 1470 1472 1475 1477 1480 1482 1484 1486 1487 1488 1489 1490 1490 1491 1491 1491 1492 1492 1491 1490 1490 1489 1487 1486 1485 1483 1482 1480 1479 1477 1476 1474 1472 1471
1449 1449 1453 1456 1455 1457 1460 1462 1464 1467 1469 1471 1474 1476 1478 1480 1482 1484 1485 1487 1487 1488 1489 1489 1489 1489 1490 1489 1489 1487 1486 1485 1484 1483 1481 1480 1478 1477 1475 1473 1472 1470 1469 1467
1448 1448 1452 1454 1451 1453 1454 1456 1460 1463 1466 1469 1471 1474 1476 1478 1480 1482 1483 1484 1485 1486 1487 1487 1487 1487 1487 1487 1485 1484 1483 1482 1480 1479 1477 1476 1474 1472 1470 1469 1467 1465 1464 1463